Location: Antin
(43.3330°N, 0.2804°E)
Time: 04:14:15
(UTC+00:00)

COSMO-SKYMED 1 - Pass Details

Date: 16 October 2021
Orbit: 621 x 623 km, 97.9° (Epoch: 08 December)

Event Time Altitude Azimuth Distance (km) Brightness Sun altitude
Rises 18:39:44 0° 5° (N) 2,915 6.0 -16.3°
Reaches altitude 10° 18:42:01 10° 359° (N) 2,004 5.2 -16.8°
Maximum altitude 18:46:07 41° 289° (WNW) 903 3.9 -17.5°
Drops below altitude 10° 18:50:11 10° 219° (SW) 1,989 5.6 -18.2°
Sets 18:52:27 0° 212° (SSW) 2,890 6.4 -18.6°
